This is the latest recevied weather packets stored in our database for station/object KD9DOE. If no packets are shown the sender has not sent any weather packets the latest 10 day(s).
| Time | Temp. | Humidity | Pressure | Rain* | Wind** | Luminosity | Snow |
|---|---|---|---|---|---|---|---|
| 1777739144 | 12.78° C | 32% | 1018.5 hPa | 0 mm | - | 696 W/m² | - |
| 1777738842 | 13.33° C | 31% | 1018.7 hPa | 0 mm | - | 689 W/m² | - |
| 1777738538 | 13.33° C | 32% | 1018.6 hPa | 0 mm | - | 674 W/m² | - |
| 1777738236 | 13.33° C | 31% | 1018.8 hPa | 0 mm | - | 666 W/m² | - |
| 1777737934 | 12.78° C | 34% | 1018.7 hPa | 0 mm | - | 661 W/m² | - |
| 1777737632 | 12.78° C | 33% | 1018.8 hPa | 0 mm | - | 652 W/m² | - |
| 1777737330 | 12.78° C | 34% | 1018.9 hPa | 0 mm | - | 644 W/m² | - |
| 1777737027 | 12.22° C | 36% | 1019.1 hPa | 0 mm | - | 634 W/m² | - |
| 1777736722 | 11.67° C | 36% | 1018.9 hPa | 0 mm | - | 622 W/m² | - |
| 1777736089 | 11.67° C | 36% | 1019.2 hPa | 0 mm | - | 609 W/m² | - |
| 1777735786 | 11.67° C | 34% | 1019.1 hPa | 0 mm | - | 599 W/m² | - |
| 1777735484 | 12.22° C | 36% | 1019.1 hPa | 0 mm | - | 591 W/m² | - |
| 1777735181 | 11.11° C | 38% | 1019.2 hPa | 0 mm | - | 581 W/m² | - |
| 1777734878 | 11.11° C | 36% | 1019.3 hPa | 0 mm | - | 574 W/m² | - |
| 1777734575 | 11.67° C | 37% | 1019.2 hPa | 0 mm | - | 564 W/m² | - |
| 1777734272 | 11.67° C | 40% | 1019.1 hPa | 0 mm | - | 554 W/m² | - |
| 1777733968 | 11.11° C | 38% | 1019 hPa | 0 mm | - | 543 W/m² | - |
| 1777733665 | 11.11° C | 42% | 1019.1 hPa | 0 mm | - | 533 W/m² | - |
| 1777733362 | 10.56° C | 43% | 1019.3 hPa | 0 mm | - | 521 W/m² | - |
| 1777733059 | 10.56° C | 43% | 1019.2 hPa | 0 mm | - | 514 W/m² | - |
| 1777732754 | 10.56° C | 42% | 1019.4 hPa | 0 mm | - | 503 W/m² | - |
| 1777732451 | 10° C | 43% | 1019.4 hPa | 0 mm | - | 491 W/m² | - |
| 1777732149 | 10° C | 43% | 1019.3 hPa | 0 mm | - | 479 W/m² | - |
| 1777731846 | 10° C | 43% | 1019.3 hPa | 0 mm | - | 466 W/m² | - |
| 1777731543 | 9.44° C | 46% | 1019.5 hPa | 0 mm | - | 367 W/m² | - |
* Rain latest hour (hover to see other rain measurements)
** Current wind speed in m/s (hover to see current wind gust speed)